SQ9PDE-13 Weather Reports


time (UTC)temp
F
wind
direction
speed
knots
gust
knots
rain 1hr
in
rain 24hr
in
rain mn
in
humidity
%
barometer
mb
20260905195629 62 0.0 0.0 0.00 0.00 0.00 57 1019.9
20260905195129 62 0.0 0.0 0.00 0.00 0.00 57 1019.9
20260905194628 62 0.0 0.0 0.00 0.00 0.00 57 1019.9
20260905194128 62 0.0 0.0 0.00 0.00 0.00 58 1019.8
20260905193627 62 0.0 0.0 0.00 0.00 0.00 58 1019.8
20260905193126 62 0.0 0.0 0.00 0.00 0.00 58 1019.8
20260905192626 62 0.0 0.0 0.00 0.00 0.00 60 1019.8
20260905192125 62 0.0 0.0 0.00 0.00 0.00 60 1019.8
20260905191625 61 0.0 0.0 0.00 0.00 0.00 60 1019.7
20260905191124 61 0.0 0.0 0.00 0.00 0.00 60 1019.7
20260905190624 61 0.0 0.0 0.00 0.00 0.00 60 1019.7
20260905190123 61 0.0 0.0 0.00 0.00 0.00 61 1019.6
20260905185623 62 0.0 0.0 0.00 0.00 0.00 60 1019.6
20260905185122 62 0.0 0.0 0.00 0.00 0.00 60 1019.5
20260905184622 62 0.0 0.0 0.00 0.00 0.00 59 1019.5
20260905184121 62 0.0 0.0 0.00 0.00 0.00 59 1019.4
20260905183621 62 0.0 0.0 0.00 0.00 0.00 59 1019.3
20260905183120 62 0.0 0.0 0.00 0.00 0.00 59 1019.2
20260905182637 63 0.0 0.0 0.00 0.00 0.00 58 1019.1
20260905182136 63 0.0 0.0 0.00 0.00 0.00 58 1019.1
20260905181636 63 0.0 0.0 0.00 0.00 0.00 57 1019.0
20260905181135 64 0.0 0.0 0.00 0.00 0.00 56 1019.0
20260905180635 64 0.0 0.0 0.00 0.00 0.00 56 1018.9
20260905180619 64 0.0 0.0 0.00 0.00 0.00 55 1018.9
20260905180134 64 0.0 0.0 0.00 0.00 0.00 55 1018.9
20260905175634 64 0.0 0.0 0.00 0.00 0.00 55 1018.8
20260905175133 64 0.0 0.0 0.00 0.00 0.00 55 1018.7
20260905174801 64 0.0 0.0 0.00 0.00 0.00 55 1018.7
20260905174632 64 0.0 0.0 0.00 0.00 0.00 55 1018.7
20260905174132 65 0.0 0.0 0.00 0.00 0.00 55 1018.6
20260905173631 65 0.0 0.0 0.00 0.00 0.00 55 1018.5
20260905173131 65 0.0 0.0 0.00 0.00 0.00 55 1018.6
20260905172630 65 0.0 0.0 0.00 0.00 0.00 55 1018.6
20260905172130 65 0.0 0.0 0.00 0.00 0.00 55 1018.5
20260905171629 65 0.0 0.0 0.00 0.00 0.00 55 1018.5
20260905171129 65 0.0 0.0 0.00 0.00 0.00 55 1018.4
20260905170628 65 0.0 0.0 0.00 0.00 0.00 55 1018.4
20260905170128 65 0.0 0.0 0.00 0.00 0.00 55 1018.4
20260905165627 65 0.0 0.0 0.00 0.00 0.00 55 1018.3
20260905164107 66 0.0 0.0 0.00 0.00 0.00 53 1018.1
20260905163606 66 0.0 0.0 0.00 0.00 0.00 52 1018.1
20260905163106 67 0.0 0.0 0.00 0.00 0.00 52 1017.9
20260905162605 67 0.0 0.0 0.00 0.00 0.00 53 1017.9
20260905162105 67 0.0 0.0 0.00 0.00 0.00 52 1017.9
20260905161604 67 0.0 0.0 0.00 0.00 0.00 52 1017.9
20260905161104 67 0.0 0.0 0.00 0.00 0.00 51 1017.7
20260905160603 67 0.0 0.0 0.00 0.00 0.00 51 1017.7
20260905155602 67 0.0 0.0 0.00 0.00 0.00 51 1017.6
20260905155102 67 0.0 0.0 0.00 0.00 0.00 50 1017.6
20260905154601 68 0.0 0.0 0.00 0.00 0.00 51 1017.5
20260905154101 68 0.0 0.0 0.00 0.00 0.00 50 1017.5
20260905153600 68 0.0 0.0 0.00 0.00 0.00 50 1017.5
20260905153059 68 0.0 0.0 0.00 0.00 0.00 49 1017.5
20260905152559 68 0.0 0.0 0.00 0.00 0.00 49 1017.4
20260905152058 68 0.0 0.0 0.00 0.00 0.00 48 1017.2
20260905151558 69 0.0 0.0 0.00 0.00 0.00 48 1017.3
20260905151058 69 0.0 0.0 0.00 0.00 0.00 48 1017.2
20260905150557 69 0.0 0.0 0.00 0.00 0.00 48 1017.3
20260905150056 68 0.0 0.0 0.00 0.00 0.00 48 1017.3
20260905145556 69 0.0 0.0 0.00 0.00 0.00 49 1017.2
20260905145055 69 0.0 0.0 0.00 0.00 0.00 49 1017.2
20260905144555 69 0.0 0.0 0.00 0.00 0.00 49 1017.0
20260905144054 69 0.0 0.0 0.00 0.00 0.00 48 1016.9
20260905143554 69 0.0 0.0 0.00 0.00 0.00 48 1017.0
20260905143053 69 0.0 0.0 0.00 0.00 0.00 48 1017.0
20260905142553 69 0.0 0.0 0.00 0.00 0.00 48 1016.9
20260905142052 70 0.0 0.0 0.00 0.00 0.00 48 1016.9
20260905141552 69 0.0 0.0 0.00 0.00 0.00 49 1017.0
20260905141052 70 0.0 0.0 0.00 0.00 0.00 48 1017.0
20260905140551 69 0.0 0.0 0.00 0.00 0.00 48 1017.1
20260905140050 70 0.0 0.0 0.00 0.00 0.00 48 1017.1
20260905135549 69 0.0 0.0 0.00 0.00 0.00 47 1017.0
20260905135049 70 0.0 0.0 0.00 0.00 0.00 47 1017.0
20260905134549 70 0.0 0.0 0.00 0.00 0.00 46 1017.0
20260905134048 70 0.0 0.0 0.00 0.00 0.00 46 1017.0
20260905133547 70 0.0 0.0 0.00 0.00 0.00 45 1016.9
20260905121539 70 0.0 0.0 0.00 0.00 0.00 45 1017.2
20260905121251 72 0.0 0.0 0.00 0.00 0.00 42 1017.1
20260905121213 72 0.0 0.0 0.00 0.00 0.00 42 1017.1
20260905121038 72 0.0 0.0 0.00 0.00 0.00 42 1017.1
20260905120538 71 0.0 0.0 0.00 0.00 0.00 41 1017.2
20260905120037 70 0.0 0.0 0.00 0.00 0.00 41 1017.3
20260905115537 69 0.0 0.0 0.00 0.00 0.00 44 1017.3
20260905115036 70 0.0 0.0 0.00 0.00 0.00 43 1017.2
20260905114536 70 0.0 0.0 0.00 0.00 0.00 41 1017.2
20260905114035 71 0.0 0.0 0.00 0.00 0.00 41 1017.2
20260905113535 71 0.0 0.0 0.00 0.00 0.00 42 1017.1
20260905113034 71 0.0 0.0 0.00 0.00 0.00 40 1017.1
20260905112534 71 0.0 0.0 0.00 0.00 0.00 44 1017.1
20260905112033 71 0.0 0.0 0.00 0.00 0.00 46 1017.2
20260905111533 70 0.0 0.0 0.00 0.00 0.00 47 1017.2
20260905111033 70 0.0 0.0 0.00 0.00 0.00 49 1017.1
20260905110532 68 0.0 0.0 0.00 0.00 0.00 51 1017.4
20260905110031 68 0.0 0.0 0.00 0.00 0.00 52 1017.3
20260905105531 69 0.0 0.0 0.00 0.00 0.00 50 1017.2
20260905105111 72 0.0 0.0 0.00 0.00 0.00 47 1017.0
20260905105030 72 0.0 0.0 0.00 0.00 0.00 47 1017.0
20260905104530 73 0.0 0.0 0.00 0.00 0.00 47 1016.9
20260905104029 72 0.0 0.0 0.00 0.00 0.00 47 1017.1
20260905103529 72 0.0 0.0 0.00 0.00 0.00 48 1017.0
20260905103028 71 0.0 0.0 0.00 0.00 0.00 48 1017.1
20260905102528 72 0.0 0.0 0.00 0.00 0.00 49 1017.1
20260905101527 68 0.0 0.0 0.00 0.00 0.00 53 1017.4
20260905101026 68 0.0 0.0 0.00 0.00 0.00 55 1017.4
20260905100526 71 0.0 0.0 0.00 0.00 0.00 52 1017.1
20260905100025 74 0.0 0.0 0.00 0.00 0.00 48 1016.9
20260905095524 75 0.0 0.0 0.00 0.00 0.00 48 1016.9
20260905095024 74 0.0 0.0 0.00 0.00 0.00 49 1017.0
20260905094523 74 0.0 0.0 0.00 0.00 0.00 50 1017.0
20260905094023 73 0.0 0.0 0.00 0.00 0.00 53 1017.0
20260905093522 73 0.0 0.0 0.00 0.00 0.00 52 1017.2
20260905093342 72 0.0 0.0 0.00 0.00 0.00 53 1017.3
20260905092842 67 0.0 0.0 0.00 0.00 0.00 59 1017.6
20260905092341 73 0.0 0.0 0.00 0.00 0.00 51 1017.1
20260905091841 74 0.0 0.0 0.00 0.00 0.00 53 1017.2
20260905091340 72 0.0 0.0 0.00 0.00 0.00 57 1017.4
20260905090840 68 0.0 0.0 0.00 0.00 0.00 62 1017.6
20260905090339 65 0.0 0.0 0.00 0.00 0.00 67 1018.1
20260905085905 65 0.0 0.0 0.00 0.00 0.00 66 1018.0
20260905085405 64 0.0 0.0 0.00 0.00 0.00 66 1017.9
20260905084904 66 0.0 0.0 0.00 0.00 0.00 65 1017.7
20260905084404 65 0.0 0.0 0.00 0.00 0.00 66 1017.9
20260905083903 66 0.0 0.0 0.00 0.00 0.00 67 1018.0
20260905083403 65 0.0 0.0 0.00 0.00 0.00 66 1017.9
20260905082902 65 0.0 0.0 0.00 0.00 0.00 66 1018.0
20260905082402 65 0.0 0.0 0.00 0.00 0.00 66 1018.0
20260905081901 66 0.0 0.0 0.00 0.00 0.00 65 1017.8
20260905081401 65 0.0 0.0 0.00 0.00 0.00 65 1018.0
20260905080900 70 0.0 0.0 0.00 0.00 0.00 59 1017.6
20260905080400 66 0.0 0.0 0.00 0.00 0.00 66 1018.0
20260905075859 71 0.0 0.0 0.00 0.00 0.00 60 1017.7
20260905075359 72 0.0 0.0 0.00 0.00 0.00 60 1017.7
20260905074858 66 0.0 0.0 0.00 0.00 0.00 67 1018.0
20260905074357 68 0.0 0.0 0.00 0.00 0.00 65 1017.8
20260905073857 63 0.0 0.0 0.00 0.00 0.00 72 1018.2
20260905073356 63 0.0 0.0 0.00 0.00 0.00 74 1018.1
20260905072856 62 0.0 0.0 0.00 0.00 0.00 77 1018.1
20260905072356 61 0.0 0.0 0.00 0.00 0.00 77 1018.1
20260905071855 60 0.0 0.0 0.00 0.00 0.00 79 1018.2
20260905071354 60 0.0 0.0 0.00 0.00 0.00 80 1018.2
20260905070854 59 0.0 0.0 0.00 0.00 0.00 80 1017.9
20260905070353 59 0.0 0.0 0.00 0.00 0.00 80 1017.8
20260905065853 59 0.0 0.0 0.00 0.00 0.00 81 1017.9
20260905065350 59 0.0 0.0 0.00 0.00 0.00 82 1017.9
20260905064850 59 0.0 0.0 0.00 0.00 0.00 82 1018.0
20260905064349 59 0.0 0.0 0.00 0.00 0.00 82 1017.9
20260905063849 59 0.0 0.0 0.00 0.00 0.00 81 1017.8
20260905063348 59 0.0 0.0 0.00 0.00 0.00 82 1017.8
20260905062847 59 0.0 0.0 0.00 0.00 0.00 82 1017.5
20260905062347 59 0.0 0.0 0.00 0.00 0.00 82 1017.5
20260905061846 59 0.0 0.0 0.00 0.00 0.00 83 1017.5
20260905061346 59 0.0 0.0 0.00 0.00 0.00 84 1017.7
20260905060846 58 0.0 0.0 0.00 0.00 0.00 84 1017.8
20260905060345 58 0.0 0.0 0.00 0.00 0.00 85 1017.7
20260905055845 58 0.0 0.0 0.00 0.00 0.00 85 1017.6
20260905055344 58 0.0 0.0 0.00 0.00 0.00 85 1017.5
20260905054843 58 0.0 0.0 0.00 0.00 0.00 85 1017.6
20260905054343 58 0.0 0.0 0.00 0.00 0.00 86 1017.4
20260905053843 58 0.0 0.0 0.00 0.00 0.00 86 1017.5
20260905053443 58 0.0 0.0 0.00 0.00 0.00 87 1017.3
20260905053342 58 0.0 0.0 0.00 0.00 0.00 87 1017.3
20260905052841 58 0.0 0.0 0.00 0.00 0.00 87 1017.2
20260905052341 58 0.0 0.0 0.00 0.00 0.00 88 1017.2
20260905051840 58 0.0 0.0 0.00 0.00 0.00 87 1017.0
20260905051340 58 0.0 0.0 0.00 0.00 0.00 87 1017.1
20260905050839 58 0.0 0.0 0.00 0.00 0.00 87 1017.1
20260905045838 58 0.0 0.0 0.00 0.00 0.00 86 1016.9
20260905045434 59 0.0 0.0 0.00 0.00 0.00 86 1016.7
20260905045337 59 0.0 0.0 0.00 0.00 0.00 86 1016.7
20260905044837 59 0.0 0.0 0.00 0.00 0.00 86 1016.5
20260905044336 59 0.0 0.0 0.00 0.00 0.00 86 1016.4
20260905043335 59 0.0 0.0 0.00 0.00 0.00 86 1016.5
20260905042835 59 0.0 0.0 0.00 0.00 0.00 87 1016.4
20260905042601 59 0.0 0.0 0.00 0.00 0.00 87 1016.2
20260905042334 59 0.0 0.0 0.00 0.00 0.00 87 1016.2
20260905041834 59 0.0 0.0 0.00 0.00 0.00 88 1016.3
20260905041333 59 0.0 0.0 0.00 0.00 0.00 88 1016.3
20260905040833 59 0.0 0.0 0.00 0.00 0.00 88 1016.5
20260905040332 59 0.0 0.0 0.00 0.00 0.00 88 1016.5
20260905035832 59 0.0 0.0 0.00 0.00 0.00 88 1016.1
20260905035331 59 0.0 0.0 0.00 0.00 0.00 88 1016.0
20260905034831 59 0.0 0.0 0.00 0.00 0.00 88 1015.7
20260905034330 59 0.0 0.0 0.00 0.00 0.00 87 1015.9
20260905033830 59 0.0 0.0 0.00 0.00 0.00 87 1015.8
20260905033329 59 0.0 0.0 0.00 0.00 0.00 87 1015.4
20260905032829 59 0.0 0.0 0.00 0.00 0.00 87 1015.3
20260905032328 59 0.0 0.0 0.00 0.00 0.00 87 1015.2
20260905031827 59 0.0 0.0 0.00 0.00 0.00 86 1015.2
20260905031327 59 0.0 0.0 0.00 0.00 0.00 87 1015.1
20260905030826 59 0.0 0.0 0.00 0.00 0.00 87 1015.0
20260905030326 59 0.0 0.0 0.00 0.00 0.00 86 1014.9
20260905025826 59 0.0 0.0 0.00 0.00 0.00 86 1014.9
20260905025325 59 0.0 0.0 0.00 0.00 0.00 86 1014.9
20260905024824 59 0.0 0.0 0.00 0.00 0.00 86 1015.0
20260905024324 60 0.0 0.0 0.00 0.00 0.00 86 1015.1
20260905023823 60 0.0 0.0 0.00 0.00 0.00 86 1015.2
20260905023323 60 0.0 0.0 0.00 0.00 0.00 86 1014.9
20260905022822 60 0.0 0.0 0.00 0.00 0.00 86 1015.1
20260905022322 60 0.0 0.0 0.00 0.00 0.00 86 1015.2
20260905021821 60 0.0 0.0 0.00 0.00 0.00 85 1015.2
20260905021321 60 0.0 0.0 0.00 0.00 0.00 85 1015.0
20260905020820 60 0.0 0.0 0.00 0.00 0.00 85 1015.1
20260905020320 60 0.0 0.0 0.00 0.00 0.00 85 1014.9
20260905015819 60 0.0 0.0 0.00 0.00 0.00 85 1014.8
20260905015319 60 0.0 0.0 0.00 0.00 0.00 86 1014.9
20260905014818 60 0.0 0.0 0.00 0.00 0.00 87 1014.7
20260905014318 60 0.0 0.0 0.00 0.00 0.00 87 1014.6
20260905013817 60 0.0 0.0 0.00 0.00 0.00 87 1014.4
20260905013316 60 0.0 0.0 0.00 0.00 0.00 87 1014.5
20260905012816 60 0.0 0.0 0.00 0.00 0.00 87 1014.8
20260905012315 60 0.0 0.0 0.00 0.00 0.00 87 1014.7
20260905011815 60 0.0 0.0 0.00 0.00 0.00 87 1014.6
20260905011314 60 0.0 0.0 0.00 0.00 0.00 86 1014.7
20260905010814 60 0.0 0.0 0.00 0.00 0.00 86 1014.6
20260905010313 60 0.0 0.0 0.00 0.00 0.00 86 1014.7
20260905005813 60 0.0 0.0 0.00 0.00 0.00 85 1014.5
20260905005312 60 0.0 0.0 0.00 0.00 0.00 84 1014.5
20260905004812 61 0.0 0.0 0.00 0.00 0.00 81 1014.6
20260905004311 61 0.0 0.0 0.00 0.00 0.00 80 1014.4
20260905003919 61 0.0 0.0 0.00 0.00 0.00 79 1014.1
20260905003811 61 0.0 0.0 0.00 0.00 0.00 79 1014.1
20260905003452 62 0.0 0.0 0.00 0.00 0.00 77 1014.0
20260905003310 62 0.0 0.0 0.00 0.00 0.00 77 1014.0
20260905002810 62 0.0 0.0 0.00 0.00 0.00 76 1013.8
20260905002309 62 0.0 0.0 0.00 0.00 0.00 76 1014.0
20260905001809 62 0.0 0.0 0.00 0.00 0.00 75 1014.0
20260905001308 62 0.0 0.0 0.00 0.00 0.00 75 1013.9
20260905000808 63 0.0 0.0 0.00 0.00 0.00 74 1013.7
20260905000307 63 0.0 0.0 0.00 0.00 0.00 73 1013.9
20260904235806 63 0.0 0.0 0.00 0.00 0.00 72 1013.8
20260904235306 64 0.0 0.0 0.00 0.00 0.00 69 1013.8
20260904234805 65 0.0 0.0 0.00 0.00 0.00 66 1013.7
20260904234305 65 0.0 0.0 0.00 0.00 0.00 66 1013.3
20260904233804 65 0.0 0.0 0.00 0.00 0.00 67 1013.4
20260904233304 65 0.0 0.0 0.00 0.00 0.00 66 1013.2
20260904232803 66 0.0 0.0 0.00 0.00 0.00 63 1013.1
20260904232306 66 0.0 0.0 0.00 0.00 0.00 63 1013.1
20260904231802 66 0.0 0.0 0.00 0.00 0.00 62 1012.7
20260904231302 66 0.0 0.0 0.00 0.00 0.00 63 1012.9
20260904230801 66 0.0 0.0 0.00 0.00 0.00 63 1012.8
20260904230301 67 0.0 0.0 0.00 0.00 0.00 62 1012.6
20260904225800 67 0.0 0.0 0.00 0.00 0.00 62 1012.8
20260904225300 67 0.0 0.0 0.00 0.00 0.00 64 1012.5
20260904224759 68 0.0 0.0 0.00 0.00 0.00 65 1012.4
20260904224259 68 0.0 0.0 0.00 0.00 0.00 65 1012.3
20260904223758 68 0.0 0.0 0.00 0.00 0.00 64 1012.3
20260904223258 68 0.0 0.0 0.00 0.00 0.00 63 1012.0
20260904222757 69 0.0 0.0 0.00 0.00 0.00 64 1011.9
20260904222257 69 0.0 0.0 0.00 0.00 0.00 66 1011.8
20260904221756 69 0.0 0.0 0.00 0.00 0.00 66 1011.6
20260904221240 69 0.0 0.0 0.00 0.00 0.00 65 1011.5
20260904220740 70 0.0 0.0 0.00 0.00 0.00 65 1011.5
20260904220239 70 0.0 0.0 0.00 0.00 0.00 66 1011.4
20260904215739 71 0.0 0.0 0.00 0.00 0.00 65 1011.1
20260904215238 71 0.0 0.0 0.00 0.00 0.00 64 1011.0
20260904214738 72 0.0 0.0 0.00 0.00 0.00 64 1010.9
20260904214237 72 0.0 0.0 0.00 0.00 0.00 63 1010.8
20260904213737 72 0.0 0.0 0.00 0.00 0.00 62 1010.6
20260904213236 72 0.0 0.0 0.00 0.00 0.00 61 1010.4
20260904212735 72 0.0 0.0 0.00 0.00 0.00 61 1010.4
20260904212235 72 0.0 0.0 0.00 0.00 0.00 59 1009.6
20260904211734 72 0.0 0.0 0.00 0.00 0.00 59 1009.0
20260904211234 72 0.0 0.0 0.00 0.00 0.00 59 1009.2
20260904210733 72 0.0 0.0 0.00 0.00 0.00 59 1009.1
20260904210233 72 0.0 0.0 0.00 0.00 0.00 59 1009.2
20260904205732 72 0.0 0.0 0.00 0.00 0.00 60 1009.3
20260904205232 72 0.0 0.0 0.00 0.00 0.00 60 1009.3
20260904204731 72 0.0 0.0 0.00 0.00 0.00 60 1009.3
20260904203730 72 0.0 0.0 0.00 0.00 0.00 61 1009.3
20260904203230 72 0.0 0.0 0.00 0.00 0.00 61 1009.3
20260904202729 72 0.0 0.0 0.00 0.00 0.00 61 1009.4
20260904202229 72 0.0 0.0 0.00 0.00 0.00 61 1009.5
20260904201728 71 0.0 0.0 0.00 0.00 0.00 62 1009.4
20260904201228 71 0.0 0.0 0.00 0.00 0.00 62 1009.3
20260904200727 72 0.0 0.0 0.00 0.00 0.00 62 1009.5
20260904200227 71 0.0 0.0 0.00 0.00 0.00 62 1009.7
20260904195726 72 0.0 0.0 0.00 0.00 0.00 62 1009.8